Погода в Дубках

Россия / Ярославская область     57°31′42″N   39°44′16″E
темп.,
°C
ветер,
м/с
пор.,
м/с
влажн.,
%
обл.,
%
осадки,
мм/ч
давл.,
гПа
погр.,
м
30 июня, чт
чт3000:00+11ссз2270100 0.0 102019
03:00+9сз227496 0.0 102023
06:00+13сз37785 0.0 1018179
09:00+19ссз585790 0.0 1017672
12:00+21ссз684627 0.0 10161709
15:00+22с79451 0.0 10162075
18:00+20с6105462 0.0 1016827
21:00+15ссв377020 0.0 1017104
1 июля, пт
пт100:00+11св38710 0.0 1019127
03:00+8св33790 0.0 102140
06:00+11ссв35740 0.0 1021169
09:00+16св57571 0.0 1022883
12:00+18св57445 0.0 10221497
15:00+20св46432 0.0 10221623
18:00+20св25504 0.0 10211299
21:00+15зсз22640 0.0 102111
2 июля, сб
сб200:00+12сз22789 0.0 102214
03:00+11сз2267100 0.0 102126
06:00+13зсз387097 0.0 1021185
09:00+16зсз3866100 0.0 1020273
12:00+23сз57475 0.0 1018780
15:00+26ссз584634 0.0 10171564
18:00+23сз226228 0.0 101523
21:00+20ссз23766 0.0 101529
3 июля, вс
вс300:00+16ссв34893 0.0 101547
03:00+14с338588 0.0 101646
06:00+16ссв36831 0.0 1016166
09:00+21св34680 0.0 1017599
12:00+24св45560 0.0 10161453
15:00+25св34500 0.0 10161799
18:00+25в23580 0.0 1016990
21:00+19вюв11740 0.0 101611
4 июля, пн
пн400:00+16ю11804 0.0 101711
03:00+15ююз118217 0.0 101811
06:00+18з007579 0.0 101853
09:00+22ююз116191 0.0 1018461
12:00+25юз215094 0.0 10181345
15:00+26юз224899 0.0 10171341
18:00+26ю225623 0.0 1016640
21:00+20ю227064 0.0 101613